sat.trackr.live / text

‹ back to catalog

SORAYA

NORAD 58817 · 2024-015A

PAYLOAD ACTIVE UNKNOWN

§ Identity

Operator
Country
IRAN
Launch date
2024-01-20
Launch site
SMTS
Launch vehicle
Mass (kg)
RCS (m²)

External: N2YO · Heavens-Above · Gunter

§ Orbital elements

Epoch: 2026-09-21T22:49:58.058688Z

Period
99.81 min
Inclination
64.5150°
Eccentricity
0.0011175
Mean motion
14.42740780 rev/d
Perigee alt
741.5 km
Apogee alt
757.4 km
Semi-major
7,127.6 km
B*
2.9902e-5
RAAN
159.7820°
Arg perigee
299.4646°
Mean anomaly
60.5324°
Rev number
14,073

§ Raw data

SORAYA1 58817U 24015A   26264.95136642 -.00000007  00000+0  29902-4 0  99902 58817  64.5150 159.7820 0011175 299.4646  60.5324 14.42740780140731

JSON: /api/v1/satellites/58817 · /tle

For live sub-satellite position, see the globe view (requires WebGL).

§ Visibility from observer

Set your observer location to see the next 7 days of passes ≥ 10°. The values pass through the URL so the page stays shareable.

No JS? Fill the form by hand. The geolocation button needs JavaScript.